Wind_Speed
53 56 56 57 60 61 59 58 58 55 52 47 38 32 31 30 30 33 37 38 38 43 39 26 26 31 33 32 29 26 23 24 26 23 19 21 21 17 14 14 15 16 16 14 14 14 14 13 13 14 14 14 14 16 18 19 19 18 18 18 19 20 20
52 56 57 58 60 62 63 62 58 53 54 54 44 35 36 37 33 31 33 29 26 33 34 27 31 36 36 34 30 26 25 26 25 20 12 12 13 11 12 13 14 16 16 14 14 15 15 14 14 13 13 15 16 16 17 18 18 17 18 19 19 18 18
52 55 57 59 61 63 64 63 60 58 61 60 52 43 38 37 40 38 36 30 24 25 26 26 32 35 33 32 30 25 25 25 24 21 15 12 12 12 14 16 17 17 17 17 16 17 17 16 14 12 13 16 16 16 17 17 18 18 19 19 17 16 17
50 54 58 61 62 63 63 65 66 65 63 59 54 53 47 38 35 36 35 34 28 25 27 29 32 33 33 30 25 21 23 24 25 23 19 17 17 15 15 18 21 20 19 20 20 19 19 17 14 12 12 13 15 16 16 16 17 19 18 16 15 15 15
48 54 59 59 61 63 64 69 71 67 65 63 56 53 52 47 41 33 30 33 31 25 27 32 33 34 38 34 23 21 24 24 25 24 22 21 19 17 17 19 21 22 22 23 22 21 21 18 15 13 12 12 14 15 15 16 17 18 16 15 14 13 12
47 51 55 57 59 62 64 69 71 67 66 69 63 51 43 43 48 44 32 32 30 22 25 32 36 35 36 33 26 24 23 22 22 24 25 24 22 19 19 20 20 22 23 25 25 24 23 20 15 13 12 11 12 13 14 16 17 16 14 13 12 10 10
45 46 51 56 58 60 62 65 68 69 69 71 65 56 46 38 40 45 40 36 33 25 25 29 35 37 36 33 32 31 26 23 23 23 24 23 21 19 20 23 22 23 24 26 27 25 24 21 16 14 13 11 11 11 13 14 14 14 13 12 11 10 9
43 42 45 50 54 58 60 61 64 67 71 73 66 58 57 50 41 39 42 42 35 29 29 27 29 35 38 36 35 33 28 24 22 20 20 20 18 16 18 22 25 26 26 27 27 25 25 23 17 15 15 14 12 11 11 12 13 13 12 11 10 9 9
41 41 40 43 50 59 61 61 64 65 68 72 69 64 66 65 51 40 42 46 38 30 31 31 28 28 30 32 32 30 26 21 19 19 19 19 18 15 15 19 23 26 27 26 25 25 26 24 18 16 18 17 15 12 11 13 12 12 11 11 11 10 12
41 43 43 45 52 59 62 63 65 66 67 68 69 70 73 71 61 50 48 47 39 35 39 42 35 28 27 28 28 27 25 21 20 22 20 18 17 17 17 17 19 23 23 23 24 26 27 25 20 18 18 18 17 15 14 15 14 13 12 12 14 13 14
39 40 41 45 51 55 60 63 65 65 67 68 69 71 75 73 66 62 60 51 38 36 42 46 43 35 30 30 28 27 26 24 23 22 18 16 17 18 19 18 18 20 21 22 25 27 28 27 22 20 19 18 18 17 17 17 16 16 14 16 18 15 16
38 39 39 41 47 51 53 56 60 61 64 68 69 71 74 73 66 64 68 65 54 42 36 39 44 38 31 32 31 27 26 25 24 20 15 14 16 18 21 21 20 21 22 23 26 27 29 28 25 22 20 19 19 19 20 20 19 18 18 19 20 18 20
39 39 40 40 42 47 49 50 53 55 58 64 68 71 73 73 72 69 67 68 69 62 49 44 45 38 32 32 31 28 28 27 25 21 17 16 18 18 20 22 24 24 24 25 27 27 29 28 26 24 22 21 20 21 22 22 22 21 21 21 21 21 25
40 40 41 41 42 44 46 50 53 53 53 56 62 68 71 71 73 73 68 68 71 71 64 56 51 46 39 35 32 32 32 30 28 24 20 19 21 20 20 23 26 27 27 28 28 27 28 28 27 26 24 22 22 23 24 25 25 24 24 23 22 25 28
41 40 39 40 42 44 44 47 51 53 52 51 53 59 64 68 70 70 71 74 74 69 63 57 55 53 47 40 37 35 34 32 29 25 21 21 22 22 23 25 27 29 31 31 29 28 28 28 27 27 25 23 24 26 27 27 26 26 26 26 27 29 30
42 41 39 39 39 41 43 45 47 50 52 53 53 53 56 61 66 68 70 73 73 70 64 57 55 53 47 44 41 36 34 33 29 25 23 24 26 25 25 27 29 32 34 32 28 28 29 29 28 28 27 26 27 28 28 28 27 27 27 28 29 30 29
43 41 40 38 37 38 41 42 43 47 51 54 55 55 55 57 60 63 67 69 70 69 64 57 55 51 45 43 43 38 34 32 28 25 26 29 30 28 26 26 29 33 35 32 30 30 30 30 30 30 30 29 29 30 32 31 30 29 28 27 25 25 26
43 42 40 38 38 40 40 38 39 43 46 50 54 57 58 60 61 62 65 67 65 63 62 58 54 51 46 43 43 39 34 32 29 28 30 33 33 29 26 26 29 33 35 34 33 32 31 32 33 34 33 32 32 34 35 35 34 32 30 27 26 26 28
44 43 42 41 41 39 37 35 35 38 42 45 50 53 53 56 60 63 65 65 62 61 62 59 55 52 47 43 43 40 38 37 34 31 33 36 34 31 28 28 31 34 34 33 34 34 34 35 36 36 36 35 36 38 38 37 37 34 32 30 29 29 31
45 44 43 43 40 37 36 35 34 37 42 44 47 51 52 53 56 60 63 62 60 59 60 57 54 51 45 43 43 42 41 40 38 35 36 36 35 34 32 31 33 34 32 30 32 34 36 39 40 40 40 39 38 39 39 38 38 36 36 35 34 34 35
45 45 45 43 41 38 37 35 36 39 42 43 46 50 53 54 57 59 61 60 57 56 56 54 53 51 46 43 43 42 42 41 41 40 39 39 38 36 33 33 35 36 34 31 33 36 39 41 42 42 43 43 41 40 40 40 39 38 38 38 38 39 40
46 46 46 44 41 38 36 37 39 40 41 43 45 48 51 53 55 57 58 58 56 53 51 52 53 51 46 43 42 42 42 41 42 43 41 40 41 39 36 35 36 38 37 35 36 39 42 43 44 43 44 46 45 43 43 44 43 41 40 40 41 43 44
49 47 46 45 42 40 39 40 39 38 41 43 44 48 49 49 51 52 52 53 53 49 47 49 52 51 46 42 42 43 42 43 45 45 43 42 42 42 39 38 38 39 39 38 39 43 45 47 47 46 46 47 46 43 43 45 46 46 46 44 43 45 47
48 46 48 47 43 41 40 39 38 39 41 42 44 48 47 44 45 48 49 50 50 48 48 49 51 50 46 43 43 42 43 45 46 45 44 43 43 42 41 40 39 40 41 41 42 45 47 48 49 49 50 50 48 46 46 46 48 50 48 45 44 45 47
48 48 50 48 46 44 41 38 39 41 41 41 44 46 43 42 44 47 49 51 50 49 49 50 50 49 44 43 43 42 44 47 47 45 44 42 42 41 41 41 40 41 42 44 45 46 48 50 50 51 52 53 52 50 49 49 51 50 48 45 44 45 48
49 49 50 50 49 48 44 39 38 39 41 43 44 42 40 42 43 43 46 50 50 49 50 50 50 46 42 43 43 43 46 49 49 46 44 42 42 42 41 41 42 42 43 44 46 47 48 49 51 52 53 54 54 52 51 52 52 49 46 46 46 47 49
49 50 51 51 50 48 43 38 38 40 42 42 42 40 39 40 41 40 42 46 48 47 48 50 48 44 41 43 44 44 47 51 50 48 45 43 44 44 43 43 44 44 45 46 46 47 48 49 50 52 53 54 53 52 52 51 49 47 46 47 48 49 50
48 49 48 47 47 45 42 40 40 42 43 41 40 39 38 37 37 37 38 41 43 45 46 47 45 42 41 43 44 44 47 49 50 48 46 45 45 45 45 45 45 44 45 45 45 46 47 48 47 48 49 51 51 52 52 50 48 46 45 46 49 50 52
43 44 43 42 43 42 41 41 41 42 42 40 39 39 38 36 34 33 33 36 39 42 43 43 42 41 41 43 43 44 45 47 47 45 45 46 47 46 47 47 46 45 44 44 44 45 45 46 46 46 48 49 51 53 54 54 52 49 45 46 50 53 55
41 40 39 41 41 40 40 41 41 40 40 40 38 38 39 37 35 34 32 33 36 38 40 40 41 41 40 40 40 42 42 43 43 43 44 45 46 46 47 46 45 44 42 42 43 42 42 44 45 45 46 49 51 52 51 50 50 48 46 48 52 55 56
38 36 36 37 38 38 40 41 40 38 39 40 39 38 38 36 36 35 33 33 35 37 38 40 40 38 37 37 38 40 40 41 42 43 44 45 45 46 46 46 44 42 41 41 41 41 42 43 43 44 45 46 47 46 45 45 45 45 47 51 54 56 56
33 31 31 34 37 39 41 42 41 39 41 42 42 39 37 36 36 34 33 33 34 36 38 41 39 37 37 39 40 41 42 42 43 44 44 45 46 47 47 47 45 44 44 44 43 43 44 45 44 44 44 43 42 42 44 45 46 46 49 53 54 55 55
30 29 29 34 38 39 40 41 41 40 41 43 44 42 39 39 38 36 34 34 35 36 39 40 40 40 41 42 44 43 42 41 42 44 45 46 47 48 48 48 49 50 50 49 48 47 46 45 43 42 41 41 42 43 45 46 47 48 51 53 53 54 54
31 28 29 33 37 38 35 36 40 42 41 43 44 42 39 40 40 39 39 39 39 39 40 40 40 42 42 43 43 41 38 37 39 41 44 46 47 47 48 50 51 53 53 52 50 48 45 42 40 39 40 41 42 44 46 47 47 48 50 52 53 53 53
27 25 27 32 36 35 32 33 39 43 43 44 44 42 40 40 40 40 42 44 44 45 45 42 41 42 40 39 39 38 36 36 37 39 41 43 46 47 48 49 51 53 53 50 45 42 40 38 38 40 41 43 43 44 46 47 47 47 49 50 51 51 51
24 23 26 31 33 31 30 35 42 45 45 44 44 42 41 42 42 42 43 44 45 44 43 42 41 41 40 39 38 39 39 38 38 39 41 43 45 47 47 47 50 53 50 45 39 36 36 37 38 40 42 43 45 46 46 47 48 49 49 48 47 47 48
26 24 25 30 32 28 28 34 41 44 46 47 45 44 43 43 45 46 44 43 44 43 43 43 44 44 44 44 44 44 43 41 40 40 42 44 45 45 44 45 46 47 45 40 36 36 36 37 39 42 44 45 47 47 47 47 47 46 44 42 43 46 47
Wind_Direction
231 229 226 222 220 220 219 217 219 221 218 217 220 228 228 226 231 233 237 247 244 238 236 224 209 206 204 205 206 211 212 207 215 229 236 236 239 250 263 260 253 251 252 258 265 270 276 283 287 282 274 265 253 245 243 245 247 249 251 254 257 262 267
230 229 227 224 221 220 220 219 220 222 222 220 219 228 231 227 229 228 231 242 242 235 231 213 202 204 203 202 203 205 208 208 215 224 227 228 231 244 259 260 261 264 266 273 278 279 284 290 291 284 273 264 255 247 244 244 247 250 252 255 258 262 263
229 229 226 225 223 220 221 222 221 221 224 223 219 221 225 227 234 232 230 238 240 230 222 208 205 206 204 204 202 205 214 212 213 221 225 229 234 241 252 261 267 270 275 281 281 284 291 294 292 283 270 262 255 251 248 248 250 251 251 253 255 256 257
228 228 227 224 224 222 220 221 222 221 225 227 224 224 223 223 231 235 234 240 242 231 219 211 207 203 198 199 200 212 225 216 208 215 223 231 237 240 250 260 263 264 270 276 278 284 291 293 289 280 275 266 255 249 246 246 246 245 245 246 248 251 256
231 227 228 226 225 224 220 219 222 222 223 226 225 228 230 228 227 230 234 239 241 246 239 219 206 203 200 197 202 218 224 215 209 212 217 224 229 232 244 256 260 260 262 266 272 278 284 288 284 279 281 270 253 244 237 235 236 235 236 238 241 247 252
237 230 231 229 226 227 224 221 223 221 222 226 224 225 230 230 230 230 233 238 234 243 252 226 205 203 202 203 214 220 214 215 220 216 213 217 220 223 235 247 255 259 258 260 266 272 278 282 278 274 274 260 244 236 229 229 230 228 227 227 228 232 238
240 234 231 230 227 227 226 225 225 222 224 226 224 224 225 225 230 230 230 239 234 231 241 221 201 202 204 208 220 219 211 215 221 214 208 214 220 225 235 241 247 254 256 258 262 267 274 277 271 265 263 251 238 233 229 227 222 215 212 211 214 223 238
238 235 231 230 228 227 225 225 226 224 225 228 226 227 229 227 229 228 227 234 232 226 229 216 199 203 207 211 220 220 215 216 220 218 217 226 232 235 241 241 241 245 249 255 259 265 272 275 268 259 255 251 249 246 236 225 217 210 208 212 221 236 258
232 231 227 225 228 228 225 224 225 224 225 227 227 229 231 230 230 229 229 233 228 222 228 227 216 207 206 211 219 222 219 219 228 234 232 237 243 247 249 244 241 244 248 254 259 263 269 272 269 259 254 253 254 250 236 227 224 222 221 231 241 255 271
233 234 232 229 230 232 229 226 227 225 224 225 226 228 231 231 231 229 229 234 234 232 236 238 232 216 208 214 216 216 217 215 222 233 235 242 254 261 260 250 245 247 250 253 256 261 267 271 269 261 255 252 249 243 234 229 231 234 239 250 256 267 279
238 240 240 239 236 236 234 231 230 228 226 225 225 228 230 230 231 233 231 231 234 236 237 242 239 223 215 222 218 211 213 211 214 227 239 248 254 259 260 255 249 248 249 252 255 260 265 267 266 260 254 249 244 238 233 231 237 244 250 260 266 275 282
241 239 240 240 239 237 236 235 234 231 230 228 226 228 231 230 230 235 237 235 233 230 230 236 236 225 217 225 224 214 213 215 216 220 231 246 248 248 252 255 254 249 248 251 254 258 262 263 263 259 253 248 244 240 239 240 246 252 257 265 272 278 277
241 239 239 238 237 237 236 234 234 233 232 232 230 231 233 231 230 233 237 239 237 235 234 234 233 227 222 226 228 223 221 222 219 213 215 233 244 246 249 255 256 252 248 249 252 256 259 260 261 259 254 251 249 246 246 249 252 255 260 267 275 279 278
241 239 239 237 236 237 238 235 234 233 234 235 234 234 235 234 235 234 234 238 239 238 238 237 236 235 234 232 230 228 227 225 219 212 213 227 237 242 246 249 252 252 249 249 251 253 255 257 258 257 255 254 252 250 250 252 255 259 263 270 277 280 283
242 240 241 240 237 236 238 238 237 235 233 234 235 236 236 236 237 237 236 238 241 242 240 238 238 239 239 237 233 229 229 229 221 212 214 224 230 235 239 239 242 247 248 247 249 252 254 253 252 252 252 250 250 251 252 254 258 263 267 273 279 281 285
241 241 241 242 242 240 238 239 239 237 234 233 233 234 236 236 237 238 239 240 242 243 242 240 240 241 238 237 236 232 229 227 220 213 216 220 222 227 235 235 235 240 245 246 247 248 249 248 246 247 248 249 252 256 258 260 262 266 272 278 282 284 287
239 241 241 241 242 239 236 236 238 238 237 236 235 233 234 235 236 237 239 240 241 242 242 240 240 241 238 237 237 234 227 222 218 216 219 220 218 220 229 232 231 236 242 244 242 240 242 243 244 245 247 250 255 259 261 263 265 268 275 283 287 291 297
238 240 241 240 238 236 237 240 243 244 242 241 239 238 236 236 236 237 238 239 241 242 241 238 238 240 238 235 234 230 221 216 215 216 219 220 216 213 217 225 229 233 237 238 236 234 235 239 243 245 247 249 254 257 260 263 266 270 276 283 287 294 304
238 238 239 240 239 240 244 246 247 248 247 244 242 240 237 236 237 238 238 239 239 240 239 236 235 236 234 230 228 224 215 209 208 209 215 216 211 206 210 221 229 233 233 231 231 232 235 240 243 245 247 249 253 257 260 264 267 271 275 279 283 289 299
239 239 239 241 243 243 245 245 244 243 243 242 239 236 234 234 236 236 236 237 237 239 240 238 236 236 234 230 225 220 213 208 203 203 211 212 206 204 209 218 228 233 232 230 233 233 234 238 242 245 248 251 254 257 262 266 269 272 276 279 281 285 290
240 241 241 243 244 243 244 244 241 238 239 239 238 236 235 236 237 237 236 235 234 236 238 237 236 236 235 231 224 217 212 208 202 201 207 208 205 205 209 215 225 232 231 231 236 239 238 240 243 246 250 253 257 262 267 270 273 276 279 282 284 284 287
240 242 243 244 246 245 244 243 241 240 241 241 240 240 239 237 238 238 237 235 233 233 234 234 234 234 234 230 222 215 212 208 201 200 205 207 208 208 209 213 223 231 232 231 235 241 244 247 250 253 256 259 262 268 272 272 274 278 280 282 284 287 289
239 242 244 245 247 246 243 241 242 242 243 241 239 240 241 242 240 239 237 233 230 228 229 230 232 233 232 227 220 214 210 205 201 201 205 209 212 213 212 214 220 227 231 231 232 237 242 247 251 255 259 262 264 268 272 274 275 279 280 279 282 287 290
239 241 243 244 245 245 241 239 239 239 239 237 235 236 241 245 245 241 235 231 227 223 225 227 229 229 228 223 218 213 208 205 203 203 205 210 214 215 215 217 221 225 228 230 231 234 238 243 248 253 257 263 266 269 273 276 277 280 282 280 280 285 288
239 242 244 244 245 246 245 243 241 240 238 236 235 237 239 242 245 243 236 231 226 222 222 224 226 227 224 219 216 213 208 205 204 204 206 210 214 217 218 219 223 227 229 231 233 235 238 242 247 252 256 261 265 268 272 275 277 281 284 282 280 282 285
238 241 243 243 245 245 246 247 246 243 239 237 236 239 239 238 241 243 238 232 228 224 222 223 225 224 220 216 216 213 207 204 204 206 209 212 216 220 222 222 225 229 232 234 236 239 242 246 249 253 256 260 264 267 270 273 276 278 280 280 280 281 283
236 239 241 242 244 244 244 247 247 243 239 236 235 238 239 237 238 239 237 233 231 227 225 224 224 220 215 215 217 214 208 205 206 209 213 216 219 223 225 226 229 231 234 236 239 241 245 248 251 254 257 259 263 266 268 269 271 273 276 278 279 280 281
234 239 242 243 243 242 243 245 245 241 238 236 235 235 235 235 234 235 237 236 233 230 228 226 222 216 214 216 219 217 212 209 211 214 216 219 222 226 228 229 231 234 236 238 241 244 247 250 252 255 258 260 262 265 267 268 267 268 273 276 277 279 280
236 239 241 243 242 241 243 244 240 236 233 232 231 229 229 231 231 230 232 234 232 230 228 223 217 213 215 218 220 219 216 214 216 220 222 223 225 229 231 233 234 236 238 241 244 247 250 252 254 257 260 263 266 267 270 271 267 263 266 271 274 278 281
234 235 238 240 239 237 238 238 234 230 227 225 225 225 225 228 228 224 224 227 229 227 222 215 211 213 216 219 220 220 219 218 219 222 225 226 229 233 235 237 240 241 242 244 245 247 249 250 253 255 258 263 266 267 270 274 269 262 264 271 275 278 281
235 238 240 241 237 232 230 229 225 223 221 218 218 219 221 223 222 218 216 219 224 223 217 211 212 216 218 219 220 221 220 220 220 221 224 227 230 233 236 238 241 243 242 242 241 243 246 249 252 255 259 264 268 267 269 273 271 265 266 272 275 277 279
236 239 242 241 235 226 222 221 220 219 217 214 213 213 215 215 214 211 210 212 216 218 216 214 216 219 220 220 219 217 217 218 219 220 223 226 229 232 234 236 238 239 238 237 237 240 245 249 254 259 263 266 269 270 271 274 275 271 269 270 273 276 277
236 237 238 236 230 221 216 216 215 215 214 212 211 210 210 208 205 203 204 206 209 213 216 217 218 219 220 221 218 214 213 217 219 221 224 227 230 233 234 235 237 238 236 236 238 242 248 252 256 261 264 265 267 270 272 274 275 273 270 270 273 275 277
236 237 235 229 220 214 212 213 213 212 211 210 209 208 208 206 202 198 198 201 204 209 213 215 215 215 218 221 220 218 219 223 225 226 228 232 234 236 236 237 238 238 238 238 240 244 248 253 257 260 263 265 267 270 271 272 273 272 271 272 274 276 278
236 237 232 223 214 208 207 211 213 211 208 207 207 206 206 206 204 201 199 200 203 205 206 207 209 212 217 220 222 224 227 231 233 234 235 237 237 238 239 241 242 243 242 241 240 241 245 251 257 260 263 265 266 268 269 270 272 273 272 272 274 275 277
236 237 233 226 219 212 208 211 214 213 210 208 207 206 205 204 203 203 203 203 204 205 205 207 211 215 218 219 220 224 228 230 231 234 237 238 239 241 243 244 246 246 242 239 239 244 249 254 258 260 262 263 264 266 268 271 273 273 272 271 272 274 274
232 237 236 230 225 217 204 199 202 206 209 208 205 205 206 204 202 201 202 203 204 206 209 212 215 218 219 220 222 225 228 229 230 233 236 237 239 240 241 242 241 240 239 241 246 252 254 256 258 260 262 265 267 270 272 273 272 271 269 269 271 272 272
Height
5829 5832 5836 5839 5842 5845 5851 5853 5852 5855 5862 5866 5867 5869 5870 5871 5871 5872 5871 5869 5871 5875 5876 5880 5883 5883 5884 5886 5888 5889 5890 5892 5894 5895 5896 5896 5897 5897 5897 5897 5897 5897 5898 5899 5899 5899 5899 5899 5899 5899 5899 5899 5899 5900 5900 5901 5902 5903 5904 5904 5904 5904 5904
5823 5825 5831 5834 5837 5841 5844 5846 5850 5857 5859 5859 5862 5865 5865 5865 5865 5867 5868 5868 5869 5871 5873 5877 5879 5878 5880 5883 5885 5887 5887 5888 5890 5892 5894 5895 5895 5895 5895 5895 5895 5896 5896 5897 5897 5897 5897 5897 5897 5897 5897 5896 5896 5897 5898 5899 5900 5901 5902 5901 5902 5902 5902
5817 5819 5824 5827 5830 5834 5839 5844 5849 5851 5849 5850 5854 5857 5859 5861 5860 5862 5865 5866 5866 5868 5871 5875 5876 5876 5879 5881 5883 5885 5885 5886 5888 5890 5892 5893 5893 5893 5893 5893 5893 5894 5894 5895 5895 5895 5895 5895 5895 5895 5894 5894 5894 5895 5896 5897 5898 5899 5899 5899 5900 5900 5899
5812 5813 5815 5819 5822 5827 5835 5838 5840 5842 5844 5847 5849 5850 5852 5857 5858 5859 5862 5863 5863 5864 5867 5871 5872 5874 5876 5878 5881 5884 5884 5883 5885 5888 5890 5891 5891 5891 5892 5891 5891 5892 5892 5893 5893 5893 5893 5893 5893 5892 5892 5892 5892 5893 5893 5894 5895 5896 5896 5897 5897 5897 5897
5804 5805 5807 5814 5819 5821 5826 5828 5829 5836 5840 5841 5844 5847 5849 5851 5853 5856 5858 5860 5861 5862 5863 5866 5869 5870 5872 5873 5875 5879 5880 5880 5882 5884 5886 5888 5888 5889 5890 5889 5889 5889 5890 5891 5891 5891 5891 5891 5891 5890 5890 5890 5890 5890 5891 5892 5892 5893 5894 5895 5895 5895 5895
5797 5802 5805 5811 5815 5816 5820 5821 5824 5831 5834 5834 5839 5843 5845 5847 5848 5850 5855 5856 5859 5862 5860 5860 5864 5867 5869 5871 5872 5873 5875 5878 5879 5880 5882 5884 5885 5886 5887 5887 5887 5887 5887 5888 5888 5889 5889 5889 5889 5888 5888 5888 5888 5889 5889 5889 5890 5891 5892 5893 5893 5893 5893
5794 5799 5802 5805 5808 5812 5815 5817 5821 5827 5828 5829 5834 5836 5839 5844 5844 5847 5851 5851 5855 5860 5856 5855 5860 5864 5866 5868 5869 5870 5871 5873 5875 5876 5877 5880 5882 5884 5884 5884 5884 5884 5885 5885 5885 5886 5887 5887 5887 5887 5886 5887 5887 5887 5887 5888 5889 5890 5890 5891 5891 5891 5891
5790 5794 5797 5799 5802 5805 5808 5810 5815 5820 5821 5824 5831 5833 5835 5839 5840 5843 5846 5845 5849 5854 5851 5851 5857 5860 5862 5864 5865 5867 5869 5870 5871 5872 5874 5878 5879 5880 5881 5881 5882 5882 5882 5882 5882 5884 5884 5884 5885 5885 5885 5885 5885 5886 5886 5886 5887 5888 5888 5889 5889 5889 5889
5785 5788 5791 5794 5794 5796 5800 5804 5807 5812 5816 5821 5826 5830 5830 5831 5834 5839 5839 5838 5843 5848 5847 5848 5854 5857 5860 5862 5863 5865 5867 5867 5869 5870 5872 5875 5876 5877 5878 5878 5879 5879 5879 5880 5880 5881 5882 5882 5883 5883 5883 5884 5884 5884 5884 5884 5885 5886 5886 5887 5887 5887 5886
5780 5782 5785 5789 5790 5791 5796 5800 5801 5805 5811 5814 5819 5822 5821 5821 5827 5832 5831 5832 5840 5845 5843 5844 5850 5855 5857 5858 5860 5861 5863 5865 5867 5868 5870 5872 5873 5874 5874 5875 5876 5876 5877 5878 5878 5879 5879 5879 5880 5880 5881 5881 5882 5882 5883 5883 5884 5884 5884 5884 5884 5884 5885
5776 5779 5782 5786 5788 5789 5791 5794 5797 5800 5804 5808 5812 5813 5812 5816 5822 5822 5822 5829 5837 5841 5840 5841 5845 5849 5852 5854 5856 5857 5858 5860 5863 5865 5867 5869 5869 5870 5871 5871 5872 5873 5874 5875 5875 5876 5876 5877 5878 5878 5879 5879 5880 5881 5881 5881 5882 5882 5882 5882 5882 5883 5883
5772 5775 5778 5782 5783 5784 5786 5789 5792 5795 5798 5801 5805 5804 5805 5813 5817 5814 5817 5824 5828 5832 5837 5839 5840 5844 5848 5851 5852 5854 5855 5856 5858 5861 5863 5865 5866 5867 5868 5868 5870 5871 5872 5872 5873 5873 5873 5874 5875 5875 5876 5877 5878 5878 5879 5879 5880 5880 5880 5880 5880 5881 5879
5767 5770 5773 5776 5778 5779 5782 5784 5786 5789 5791 5793 5797 5799 5802 5808 5808 5808 5815 5819 5819 5824 5831 5834 5836 5840 5843 5847 5848 5851 5852 5853 5854 5856 5859 5862 5863 5864 5865 5866 5867 5868 5869 5870 5871 5871 5871 5871 5872 5872 5873 5874 5875 5876 5876 5877 5877 5877 5877 5878 5878 5878 5875
5761 5764 5767 5770 5773 5774 5776 5778 5781 5784 5786 5788 5791 5794 5798 5801 5802 5806 5813 5812 5811 5818 5824 5828 5834 5836 5838 5842 5845 5846 5847 5848 5849 5851 5854 5857 5859 5861 5863 5864 5864 5865 5866 5867 5868 5868 5868 5868 5869 5870 5871 5872 5873 5873 5873 5874 5874 5874 5875 5875 5876 5874 5872
5755 5758 5762 5764 5767 5769 5770 5772 5775 5778 5781 5783 5785 5788 5792 5795 5797 5802 5806 5805 5805 5812 5819 5825 5829 5830 5833 5837 5839 5840 5843 5844 5845 5847 5850 5853 5855 5857 5859 5860 5861 5862 5862 5864 5865 5866 5866 5866 5867 5867 5868 5869 5869 5870 5870 5871 5871 5872 5872 5872 5872 5871 5870
5750 5754 5757 5758 5761 5764 5765 5766 5769 5772 5775 5777 5780 5783 5786 5789 5791 5795 5798 5798 5800 5807 5814 5820 5824 5825 5828 5832 5833 5836 5839 5840 5841 5843 5846 5849 5851 5853 5855 5856 5858 5859 5859 5861 5863 5863 5863 5863 5864 5865 5865 5866 5866 5866 5867 5868 5868 5869 5869 5869 5868 5867 5867
5746 5749 5752 5754 5757 5756 5756 5759 5764 5767 5769 5772 5774 5777 5780 5783 5786 5789 5791 5792 5796 5802 5808 5814 5818 5820 5823 5827 5829 5832 5834 5835 5837 5839 5843 5845 5846 5848 5851 5853 5855 5855 5856 5858 5860 5860 5860 5860 5861 5862 5862 5863 5863 5863 5863 5864 5865 5865 5865 5865 5864 5864 5864
5743 5745 5747 5749 5749 5747 5750 5757 5762 5763 5765 5768 5769 5772 5775 5777 5780 5783 5786 5789 5793 5797 5801 5807 5812 5814 5817 5821 5823 5826 5829 5831 5833 5835 5838 5840 5842 5844 5847 5849 5851 5852 5853 5855 5856 5856 5857 5857 5858 5858 5859 5859 5860 5860 5860 5860 5861 5861 5861 5861 5860 5860 5860
5738 5740 5742 5742 5742 5745 5751 5756 5758 5759 5761 5763 5765 5767 5770 5772 5774 5777 5781 5784 5788 5790 5793 5800 5805 5808 5811 5815 5817 5820 5823 5824 5827 5831 5834 5836 5838 5840 5842 5845 5847 5847 5849 5851 5852 5853 5854 5854 5854 5854 5855 5856 5856 5856 5857 5857 5857 5858 5858 5857 5857 5857 5857
5733 5735 5736 5737 5739 5743 5747 5750 5752 5753 5754 5756 5759 5760 5762 5765 5768 5771 5774 5778 5783 5785 5788 5794 5800 5804 5807 5810 5812 5815 5818 5819 5822 5826 5829 5832 5834 5836 5838 5841 5842 5844 5846 5848 5848 5849 5850 5850 5850 5851 5851 5852 5853 5853 5853 5854 5854 5854 5854 5854 5854 5854 5854
5727 5729 5731 5732 5735 5738 5742 5744 5745 5746 5747 5749 5752 5753 5756 5760 5763 5765 5769 5773 5777 5780 5784 5790 5795 5799 5802 5805 5807 5811 5813 5816 5818 5821 5824 5828 5830 5832 5834 5837 5839 5840 5842 5844 5845 5845 5845 5845 5846 5846 5847 5848 5849 5850 5850 5851 5851 5851 5851 5851 5851 5850 5850
5722 5724 5725 5727 5730 5733 5737 5738 5738 5740 5742 5745 5747 5748 5750 5754 5756 5759 5764 5768 5772 5777 5780 5784 5789 5793 5796 5800 5803 5806 5809 5812 5814 5816 5820 5823 5826 5828 5830 5832 5835 5836 5838 5841 5842 5841 5842 5841 5841 5843 5844 5844 5846 5848 5848 5847 5848 5848 5848 5848 5846 5846 5845
5717 5719 5720 5722 5725 5729 5731 5731 5734 5737 5739 5742 5745 5744 5743 5748 5752 5755 5759 5764 5768 5772 5775 5779 5783 5787 5791 5795 5798 5802 5806 5808 5810 5812 5816 5819 5822 5824 5826 5828 5830 5832 5835 5837 5838 5838 5839 5838 5839 5840 5840 5841 5843 5844 5844 5843 5843 5844 5844 5843 5842 5841 5840
5712 5715 5715 5716 5720 5723 5724 5726 5729 5732 5734 5738 5740 5738 5739 5745 5749 5752 5756 5759 5763 5767 5770 5773 5777 5781 5786 5790 5794 5798 5802 5804 5806 5808 5811 5815 5818 5820 5822 5824 5826 5828 5830 5832 5833 5834 5834 5835 5836 5836 5837 5837 5838 5839 5839 5839 5838 5839 5839 5838 5837 5836 5835
5708 5710 5709 5712 5716 5717 5719 5723 5725 5728 5731 5734 5734 5734 5738 5743 5744 5747 5752 5755 5758 5762 5765 5768 5772 5776 5781 5786 5790 5794 5797 5799 5802 5805 5807 5810 5814 5816 5818 5821 5823 5824 5825 5827 5828 5829 5830 5831 5832 5832 5833 5833 5834 5834 5834 5833 5833 5834 5834 5833 5831 5830 5829
5704 5704 5705 5707 5710 5711 5715 5720 5723 5726 5728 5729 5729 5731 5736 5739 5740 5743 5747 5750 5753 5757 5760 5763 5767 5772 5777 5781 5785 5788 5791 5794 5797 5800 5803 5806 5809 5812 5814 5816 5818 5819 5821 5823 5824 5825 5826 5827 5828 5828 5829 5829 5829 5829 5829 5829 5828 5829 5828 5827 5825 5824 5823
5699 5699 5700 5701 5703 5707 5713 5718 5720 5722 5723 5724 5727 5730 5732 5734 5736 5739 5741 5745 5749 5753 5756 5759 5763 5767 5772 5776 5779 5783 5786 5790 5793 5796 5799 5802 5804 5807 5809 5811 5812 5814 5816 5817 5819 5820 5821 5822 5823 5823 5823 5823 5823 5823 5823 5824 5824 5823 5822 5821 5820 5819 5818
5695 5695 5696 5698 5700 5705 5710 5713 5714 5716 5718 5721 5725 5728 5729 5730 5732 5735 5737 5741 5745 5748 5752 5755 5759 5764 5768 5771 5774 5778 5782 5786 5789 5792 5795 5797 5799 5802 5804 5806 5807 5809 5810 5812 5814 5815 5816 5816 5817 5817 5817 5817 5817 5818 5818 5818 5818 5817 5816 5816 5815 5814 5813
5692 5693 5694 5695 5698 5702 5706 5708 5709 5712 5715 5718 5722 5724 5725 5727 5729 5731 5734 5737 5740 5744 5748 5752 5756 5760 5763 5766 5770 5774 5778 5782 5785 5788 5790 5792 5795 5798 5799 5801 5802 5803 5805 5807 5808 5809 5810 5810 5811 5811 5811 5812 5812 5812 5813 5813 5812 5810 5810 5810 5810 5808 5807
5687 5688 5690 5691 5694 5698 5701 5703 5705 5708 5711 5715 5718 5720 5722 5724 5725 5727 5730 5733 5736 5739 5743 5748 5752 5756 5759 5762 5765 5770 5774 5777 5780 5783 5785 5788 5790 5792 5794 5795 5796 5798 5800 5802 5802 5803 5804 5805 5805 5806 5807 5807 5807 5806 5807 5807 5806 5805 5805 5805 5804 5802 5801
5684 5685 5686 5687 5690 5693 5696 5698 5701 5704 5707 5711 5714 5716 5718 5719 5721 5724 5726 5730 5733 5736 5740 5745 5749 5752 5755 5758 5761 5765 5769 5772 5774 5777 5779 5782 5784 5786 5787 5789 5790 5792 5794 5795 5797 5798 5799 5799 5800 5801 5802 5802 5802 5801 5801 5801 5801 5801 5801 5800 5799 5797 5796
5680 5681 5683 5684 5685 5688 5691 5694 5696 5698 5702 5705 5709 5711 5713 5715 5717 5720 5723 5726 5730 5733 5737 5741 5744 5748 5751 5754 5757 5760 5763 5766 5768 5770 5773 5775 5777 5779 5780 5782 5784 5785 5787 5789 5790 5791 5792 5793 5794 5796 5797 5797 5796 5796 5796 5796 5796 5796 5795 5795 5793 5792 5790
5676 5678 5679 5679 5681 5685 5688 5690 5692 5695 5698 5701 5704 5706 5708 5710 5712 5715 5719 5723 5726 5730 5733 5737 5741 5744 5747 5749 5752 5754 5757 5759 5762 5764 5767 5769 5770 5772 5774 5776 5777 5779 5780 5782 5783 5784 5785 5787 5789 5790 5791 5791 5791 5791 5791 5791 5791 5791 5790 5789 5788 5786 5785
5672 5675 5676 5677 5679 5681 5684 5686 5688 5691 5694 5697 5700 5703 5705 5707 5709 5710 5713 5717 5722 5725 5729 5732 5736 5739 5741 5743 5746 5749 5751 5753 5756 5758 5761 5763 5765 5766 5768 5769 5771 5771 5773 5775 5777 5779 5780 5782 5784 5785 5785 5785 5786 5786 5786 5786 5786 5785 5784 5783 5781 5780 5779
5669 5671 5673 5675 5676 5677 5680 5682 5683 5686 5690 5694 5697 5700 5703 5705 5707 5708 5710 5713 5717 5721 5724 5727 5730 5732 5735 5738 5741 5743 5745 5748 5750 5753 5755 5757 5759 5760 5761 5763 5764 5765 5766 5768 5771 5773 5775 5777 5778 5779 5780 5780 5780 5780 5779 5779 5778 5778 5777 5776 5775 5774 5772
5665 5666 5669 5672 5673 5675 5676 5678 5679 5681 5686 5690 5693 5696 5698 5700 5703 5705 5708 5711 5714 5717 5720 5722 5724 5726 5729 5732 5735 5737 5740 5742 5744 5746 5749 5751 5753 5754 5756 5757 5758 5759 5761 5763 5765 5768 5770 5772 5773 5774 5774 5774 5773 5772 5772 5771 5770 5769 5769 5769 5768 5767 5766
5662 5664 5666 5669 5671 5673 5674 5674 5676 5678 5681 5684 5688 5692 5695 5697 5699 5702 5705 5708 5710 5712 5715 5718 5720 5722 5725 5727 5730 5732 5734 5736 5738 5740 5742 5745 5746 5748 5750 5751 5752 5753 5756 5758 5760 5763 5765 5766 5767 5767 5766 5766 5765 5764 5764 5763 5762 5761 5761 5761 5761 5761 5761